Tracking 19827 objects as of 21-Aug-2019
HD Live streaming from Space Station
objects crossing your sky now

GALILEO 21 (2C7)

Track GALILEO 21 (2C7) now!
GALILEO 21 (2C7) is classified as:


NORAD ID: 43057
Int'l Code: 2017-079C
Perigee: 23,215.5 km
Apogee: 23,243.0 km
Inclination: 56.5 °
Period: 844.7 minutes
Semi major axis: 29600 km
RCS: Unknown
Launch date: December 12, 2017
Source: European Space Agency (ESA)
Launch site: FRENCH GUIANA (FRGUI)
aabbcc
Your satellite tracking list
Your tracking list is empty




NASA's NSSDC Master Catalog

Two Line Element Set (TLE):
1 43057U 17079C   19231.95913164 -.00000001 +00000-0 +00000-0 0  9999
2 43057 056.5065 290.0922 0004642 253.8354 106.1972 01.70474461010481
Source of the keplerian elements: AFSPC